This demonstration page uses our WeatherBlox Daily Observations layout. Learn more.

36.17497, -115.13722

Hourly Observations for May 31, 2018

Temp ( °F °C ) Dew Point ( °F °C ) Humidity (%) Winds ( mph kmh ) Pressure ( in mb ) Visibility ( mi km ) Precip ( " mm )
12:53 am 00:53 Clear 82 27.8 38 3.3 21 21 SW 15 24 29.59 1002 10 16.09344 0 0
1:53 am 01:53 Clear 80 26.7 38 3.3 22 22 S 9 15 29.62 1003 10 16.09344 0 0
2:53 am 02:53 Clear 78 25.6 39 3.9 25 25 S 14 22 29.62 1003 10 16.09344 0 0
3:53 am 03:53 Clear 77 25 41 5 28 28 SSW 17 28 29.62 1003 10 16.09344 0 0
4:53 am 04:53 Clear 76 24.4 41 5 29 29 S 5 7 29.65 1004 10 16.09344 0 0
5:53 am 05:53 Sunny 75 23.9 42 5.6 31 31 S 13 20 29.65 1004 10 16.09344 0 0
6:53 am 06:53 Sunny 75 23.9 42 5.6 31 31 SSW 21 33 29.65 1004 10 16.09344 0 0
7:53 am 07:53 Sunny 77 25 41 5 28 28 SSW 21 33 29.65 1004 10 16.09344 0 0
8:53 am 08:53 Sunny 81 27.2 39 3.9 22 22 S 22 35 29.68 1005 10 16.09344 0 0
9:53 am 09:53 Sunny 85 29.4 36 2.2 17 17 S 22 35 29.65 1004 10 16.09344 0 0
10:53 am 10:53 Sunny 88 31.1 24 -4.4 10 10 SSW 24 39 29.65 1004 10 16.09344 0 0
11:53 am 11:53 Sunny 89 31.7 23 -5 9 9 SSW 18 30 29.65 1004 10 16.09344 0 0
12:53 pm 12:53 Sunny 90 32.2 16 -8.9 6 6 WSW 25 41 29.65 1004 10 16.09344 0 0
1:53 pm 13:53 Sunny 89 31.7 12 -11.1 5 5 SW 28 44 29.65 1004 10 16.09344 0 0
2:53 pm 14:53 Sunny 91 32.8 12 -11.1 5 5 SW 18 30 29.65 1004 10 16.09344 0 0
3:53 pm 15:53 Sunny 92 33.3 19 -7.2 7 7 SW 25 41 29.62 1003 10 16.09344 0 0
4:53 pm 16:53 Sunny 91 32.8 24 -4.4 9 9 SW 16 26 29.62 1003 10 16.09344 0 0
5:53 pm 17:53 Sunny 90 32.2 26 -3.3 10 10 SW 20 31 29.62 1003 10 16.09344 0 0
6:53 pm 18:53 Sunny 88 31.1 27 -2.8 11 11 SW 21 33 29.62 1003 10 16.09344 0 0
7:53 pm 19:53 Clear 85 29.4 25 -3.9 11 11 SW 21 33 29.62 1003 10 16.09344 0 0
8:53 pm 20:53 Clear 83 28.3 16 -8.9 8 8 WSW 9 15 29.68 1005 10 16.09344 0 0
9:53 pm 21:53 Clear 80 26.7 17 -8.3 9 9 SW 14 22 29.68 1005 10 16.09344 0 0
10:53 pm 22:53 Clear 78 25.6 23 -5 13 13 SW 15 24 29.71 1006 10 16.09344 0 0
11:53 pm 23:53 Clear 75 23.9 28 -2.2 18 18 SW 13 20 29.71 1006 10 16.09344 0 0

Powered by AerisWeather